Regional Weather Roundup
Issued by NWS

Home | Current Version | Previous Version | Graphics & Text | Print | Product List | Glossary On
Versions: 1 2 3 4 5 6 7 8 9 10 11 12 13 14 15 16 17 18 19 20 21 22 23 24 25 26 27 28 29 30 31 32 33 34 35 36 37 38 39 40 41 42 43 44 45 46 47 48 49 50
000
ASUS43 KTOP 182259
RWRKS

WEATHER ROUNDUP FOR KANSAS
NATIONAL WEATHER SERVICE GOODLAND KS
600 PM CDT SAT APR 18 2015

NOTE:  "FAIR" INDICATES FEW OR NO CLOUDS BELOW 12,000 FEET WITH NO
SIGNIFICANT WEATHER AND/OR OBSTRUCTIONS TO VISIBILITY.

KSZ001>006-013>018-027>032-041>047-190000-
NORTHWEST KANSAS

CITY           SKY/WX    TMP DP  RH WIND       PRES   REMARKS
GOODLAND       MOSUNNY   59  41  51 CALM      29.75F
HAYS           CLOUDY    57  46  67 E16       29.77R
HILL CITY      CLOUDY    67  44  43 S10       29.73R
RUSSELL        RAIN      58  49  72 SE8       29.80R
$$

KSZ061>065-074>080-084>089-190000-
SOUTHWEST KANSAS

CITY           SKY/WX    TMP DP  RH WIND       PRES   REMARKS
DODGE CITY     PTSUNNY   68  36  30 S5        29.73F
ELKHART          N/A    N/A N/A N/A MISG        N/A
GARDEN CITY    MOSUNNY   65  37  35 W23G30    29.75R
GREAT BEND     CLOUDY    57  45  62 SE24G37   29.77F
LIBERAL        PTSUNNY   57  34  41 W18G25    29.82S
$$

KSZ066>073-081>083-090>101-190000-
SOUTHEAST KANSAS

CITY           SKY/WX    TMP DP  RH WIND       PRES   REMARKS
CHANUTE        MOSUNNY   69  60  73 SE13      29.82F
COFFEYVILLE    MOSUNNY   71  60  68 E10       29.80F
HUTCHINSON     CLOUDY    63  46  54 N15       29.82R
MEDICINE LODGE   N/A     56  52  86 E10       29.75F
NEWTON         MOSUNNY   68  54  60 SE13      29.80S
PARSONS        MOSUNNY   71  61  70 SE8       29.82F
WICHITA INTL   PTSUNNY   72  55  55 SE14      29.75F
WICHITA JABRA  MOSUNNY   71  55  56 SE17      29.77S
WINFIELD       SUNNY     72  57  59 S12       29.77F
$$

KSZ007>012-019>026-033>040-048>060-102>105-190000-
NORTHEAST KANSAS

CITY           SKY/WX    TMP DP  RH WIND       PRES   REMARKS
CONCORDIA      PTSUNNY   61  52  72 W10G22    29.77S
EMPORIA        SUNNY     68  56  65 SE15      29.81R
LAWRENCE       PTSUNNY   65  59  81 E7        29.83F
MANHATTAN      PTSUNNY   72  57  59 SE14      29.79S
OLATHE IND     CLOUDY    65  58  78 SE12      29.84F
OLATHE EXE     CLOUDY    64  59  83 SE10      29.83F
SALINA         CLOUDY    60  51  72 W16       29.79F
TOPEKA BILLARD MOSUNNY   66  57  72 E7        29.82F
TOPEKA FORBES  MOSUNNY   68  58  70 SE10      29.81F
$$


USA.gov is the U.S. government's official web portal to all federal, state and local government web resources and services.